Weather History for Miles City, MT

Change the Weather History Date:

Saturday, March 30, 2013

  Actual Average Record
Temperature  
Mean Temperature 48 °F 40 °F  
Max Temperature 63 °F 52 °F 79 °F (1978)
Min Temperature 33 °F 28 °F 2 °F (1989)
Degree Days  
Heating Degree Days 17 25  
Month to date heating degree days 947 917  
Since 1 July heating degree days 6141 6651  
Cooling Degree Days 0 0  
Month to date cooling degree days 0 0  
Year to date cooling degree days 0 0  
Moisture  
Dew Point 29 °F    
Average Humidity 58    
Maximum Humidity 89    
Minimum Humidity 27    
Precipitation  
Precipitation T in 0.03 in 1.20 in (2006)
Month to date precipitation 0.37 0.57  
Year to date precipitation 0.56 1.12  
Sea Level Pressure  
Sea Level Pressure 30.11 in    
Wind  
Wind Speed 10 mph (NW)    
Max Wind Speed 29 mph    
Max Gust Speed 36 mph    
Visibility 10 miles    
Events Rain    
T = Trace of Precipitation, MM = Missing Value Source: NWS Daily Summary

Daily Weather History Graph

Daily Weather History Graph

Search for Another Location

Airport:

Trip Planner

Search our weather history database for the weather conditions in past years. The results will help you decide how hot, cold, wet, or windy it might be!

Date:

Astronomy

Mar. 30, 2013 Rise Set
Actual Time 6:46 AM MDT 7:30 PM MDT
Civil Twilight 6:16 AM MDT 8:00 PM MDT
Nautical Twilight 5:39 AM MDT 8:36 PM MDT
Astronomical Twilight 5:02 AM MDT 9:14 PM MDT
Moon 11:54 PM MDT (3/30) 8:30 AM MDT (3/30)
Length of Visible Light 13h 44m
Length of Day
12h 43m
Waning Gibbous, 86% of the Moon is Illuminated
Mar 30
Waning Gibbous
Apr 2
Last Quarter
Apr 10
New
Apr 18
First Quarter
Apr 25
Full

Hourly Weather History & Observations

Time (MDT) Temp. Windchill Dew Point Humidity Pressure Visibility Wind Dir Wind Speed Gust Speed Precip Events Conditions
12:53 AM 41.0 °F 34.3 °F 32.0 °F 70% 30.06 in 10.0 mi WNW 11.5 mph - N/A   Clear
1:53 AM 39.0 °F 32.3 °F 30.0 °F 70% 30.07 in 10.0 mi WNW 10.4 mph - N/A   Clear
2:53 AM 36.0 °F 29.6 °F 30.0 °F 79% 30.08 in 10.0 mi WNW 8.1 mph - N/A   Clear
3:53 AM 33.1 °F 25.5 °F 28.9 °F 85% 30.09 in 10.0 mi West 9.2 mph - N/A   Clear
4:53 AM 33.1 °F 26.1 °F 30.0 °F 89% 30.09 in 10.0 mi WNW 8.1 mph - N/A   Partly Cloudy
5:53 AM 33.1 °F 26.1 °F 30.9 °F 92% 30.10 in 10.0 mi WNW 8.1 mph - N/A   Partly Cloudy
6:53 AM 33.1 °F 25.5 °F 30.0 °F 89% 30.12 in 10.0 mi WNW 9.2 mph - N/A   Clear
7:53 AM 34.0 °F 31.0 °F 30.9 °F 89% 30.13 in 10.0 mi WNW 3.5 mph - N/A   Clear
8:53 AM 42.1 °F 37.7 °F 33.1 °F 70% 30.11 in 10.0 mi SSW 6.9 mph - N/A   Clear
9:53 AM 46.0 °F 43.1 °F 34.0 °F 63% 30.10 in 10.0 mi SW 5.8 mph - N/A   Mostly Cloudy
10:53 AM 54.0 °F - 32.0 °F 43% 30.09 in 10.0 mi West 11.5 mph - N/A   Clear
11:53 AM 55.0 °F - 30.9 °F 40% 30.09 in 10.0 mi West 11.5 mph - N/A   Clear
12:53 PM 60.1 °F - 26.1 °F 27% 30.07 in 10.0 mi NW 9.2 mph 20.7 mph N/A   Clear
1:36 PM 55.4 °F - 28.4 °F 36% 30.06 in 10.0 mi North 18.4 mph 32.2 mph 0.00 in Rain Light Rain
1:53 PM 57.9 °F - 26.1 °F 30% 30.08 in 10.0 mi NW 18.4 mph 26.5 mph 0.00 in   Overcast
2:53 PM 59.0 °F - 26.1 °F 28% 30.08 in 10.0 mi NNW 23.0 mph 32.2 mph N/A   Mostly Cloudy
3:53 PM 57.0 °F - 32.0 °F 39% 30.12 in 10.0 mi NNW 23.0 mph 32.2 mph N/A   Clear
4:53 PM 54.0 °F - 27.0 °F 35% 30.14 in 10.0 mi North 20.7 mph - N/A   Clear
5:53 PM 53.1 °F - 23.0 °F 31% 30.15 in 10.0 mi NNW 16.1 mph 24.2 mph N/A   Clear
6:53 PM 50.0 °F - 26.1 °F 39% 30.16 in 10.0 mi North 10.4 mph - N/A   Mostly Cloudy
7:53 PM 46.0 °F 44.8 °F 26.1 °F 46% 30.16 in 10.0 mi WNW 3.5 mph - N/A   Clear
8:53 PM 46.0 °F 44.8 °F 26.1 °F 46% 30.14 in 7.0 mi NW 3.5 mph - N/A   Clear
9:53 PM 41.0 °F 35.2 °F 27.0 °F 57% 30.14 in 10.0 mi NNE 9.2 mph - N/A   Clear
10:53 PM 41.0 °F 37.1 °F 28.9 °F 62% 30.12 in 10.0 mi East 5.8 mph - N/A   Clear
11:53 PM 39.9 °F 37.8 °F 27.0 °F 60% 30.10 in 10.0 mi East 3.5 mph - N/A   Mostly Cloudy